User: anonymous   Login
Location: Brainerd
(46.3580°N, 94.2010°W)
Time: 14:20:06
(UTC-06:00)
Language:

CZ-4C R/B - Orbit

View from above orbital plane
View from above orbital plane
View from above satellite
View from above satellite

Ground track
Ground track

The orbit data is extracted from the following two-line orbital elements,

1 32290U 07055B   15061.80411510  .00012861  00000-0  45120-3 0  9999
2 32290 097.5493 143.7706 0080240 222.6875 250.3247 15.26486939403664
Epoch (UTC): 02 March 2015 19:17:55
Eccentricity: 0.0080240
inclination: 97.5493°
perigee height: 431 km
apogee height: 541 km
right ascension of ascending node: 143.7706°
argument of perigee: 222.6875°
revolutions per day: 15.26486939
mean anomaly at epoch: 250.3247°
orbit number at epoch: 40366

The dashed part of the orbit path shows where the satellite is in the earth's shadow,  

DLR